This is the latest recevied weather packets stored in our database for station/object W8RSN-13. If no packets are shown the sender has not sent any weather packets the latest 10 day(s).
| Time | Temp. | Humidity | Pressure | Rain* | Wind** | Luminosity | Snow |
|---|---|---|---|---|---|---|---|
| 1788575072 | 23.89° C | 51% | 1014 hPa | - | - | - | - |
| 1788574771 | 23.89° C | 51% | 1013.9 hPa | - | - | - | - |
| 1788574469 | 24.44° C | 50% | 1013.8 hPa | - | - | - | - |
| 1788574169 | 24.44° C | 49% | 1013.8 hPa | - | - | - | - |
| 1788573868 | 25° C | 48% | 1013.7 hPa | - | - | - | - |
| 1788573567 | 25° C | 48% | 1013.8 hPa | - | - | - | - |
| 1788573266 | 25.56° C | 47% | 1013.7 hPa | - | - | - | - |
| 1788572965 | 25.56° C | 46% | 1013.8 hPa | - | - | - | - |
| 1788572664 | 25.56° C | 46% | 1013.7 hPa | - | - | - | - |
| 1788572364 | 26.11° C | 45% | 1013.6 hPa | - | - | - | - |
| 1788572062 | 26.11° C | 44% | 1013.5 hPa | - | - | - | - |
| 1788571762 | 26.67° C | 43% | 1013.6 hPa | - | - | - | - |
| 1788571461 | 27.22° C | 42% | 1013.7 hPa | - | - | - | - |
| 1788571160 | 27.22° C | 42% | 1013.5 hPa | - | - | - | - |
| 1788570859 | 27.22° C | 41% | 1013.5 hPa | - | - | - | - |
| 1788570558 | 28.33° C | 38% | 1013.5 hPa | - | - | - | - |
| 1788570257 | 28.33° C | 36% | 1013.8 hPa | - | - | - | - |
| 1788569956 | 28.33° C | 35% | 1013.5 hPa | - | - | - | - |
| 1788569675 | 28.89° C | 33% | 1013.5 hPa | - | - | - | - |
| 1788569375 | 28.89° C | 32% | 1013.4 hPa | - | - | - | - |
| 1788569074 | 28.89° C | 32% | 1013.4 hPa | - | - | - | - |
| 1788568773 | 28.89° C | 32% | 1013.4 hPa | - | - | - | - |
| 1788568472 | 28.89° C | 33% | 1013.5 hPa | - | - | - | - |
| 1788568171 | 29.44° C | 34% | 1013.4 hPa | - | - | - | - |
| 1788567870 | 28.89° C | 35% | 1013.3 hPa | - | - | - | - |
* Rain since midnight (hover to see other rain measurements)
** Current wind speed in m/s (hover to see current wind gust speed)